Theta_e
302 302 302 302 301 301 301 301 301 300 299 298 297 295 294 293 293 293 294 295 295 293 293 295 299 300 300 299 299 298 298 299 299 299 299 299 298 298 297 296 294 291 289 289 289 288 288 288 289 290 290 289
298 300 301 299 297 297 298 299 299 299 299 297 294 292 292 292 292 292 292 292 293 292 291 292 294 298 299 298 298 297 296 297 298 298 297 297 296 295 293 291 289 288 287 287 287 287 287 288 288 289 290 290
296 296 298 296 294 295 295 297 298 299 299 295 292 292 292 292 291 292 291 291 291 291 290 290 291 294 297 297 296 295 294 295 296 296 296 295 294 292 290 289 288 288 288 287 287 287 288 287 287 289 289 289
299 295 293 294 293 293 293 294 295 296 297 295 293 293 292 291 293 294 293 293 292 291 290 290 290 291 294 295 295 294 292 291 293 295 294 293 292 290 289 288 288 288 288 288 288 288 288 288 288 289 288 288
303 296 294 297 295 293 294 293 293 294 297 297 297 296 294 294 296 296 295 294 293 293 292 291 290 290 291 292 293 292 290 289 290 292 291 290 290 289 288 288 288 289 289 288 288 288 288 288 289 289 288 287
302 297 296 300 298 297 297 295 293 294 299 299 299 299 297 297 297 296 295 295 294 293 293 292 291 290 290 290 290 290 289 289 289 289 289 289 289 289 289 289 290 290 290 289 289 289 288 289 289 288 288 288
299 298 298 298 298 297 296 295 294 294 297 297 298 298 297 297 297 296 295 295 294 292 292 292 291 290 290 290 290 289 289 289 290 289 289 289 289 289 289 290 290 290 290 290 289 289 289 289 289 288 288 288
298 298 297 296 296 296 295 296 296 296 296 296 297 296 296 296 296 295 295 295 294 293 293 293 293 292 291 291 291 291 290 291 291 290 290 290 290 290 290 290 290 289 289 289 289 289 289 288 288 287 288 288
296 296 295 295 295 295 295 296 296 296 296 296 295 295 295 295 295 294 295 295 294 294 294 293 293 293 293 292 292 291 291 292 291 291 291 291 290 290 290 289 289 289 289 289 288 288 288 288 287 287 288 288
295 295 295 296 296 296 296 296 296 296 296 296 295 295 295 295 295 295 295 295 294 294 293 293 293 293 293 292 292 292 291 291 291 291 291 291 290 290 290 289 289 289 288 288 288 288 288 287 287 287 287 288
295 295 296 295 295 296 296 296 296 295 295 295 294 294 294 294 295 295 294 294 294 294 293 293 293 292 292 292 292 292 291 291 291 291 290 290 290 290 290 289 289 289 288 288 288 288 288 287 286 287 287 287
295 295 295 295 295 295 295 295 295 295 295 294 294 293 293 294 294 294 294 294 293 293 292 293 292 292 292 292 292 291 291 291 291 290 290 290 290 290 290 289 289 289 289 288 288 288 288 287 287 287 287 287
295 295 295 295 294 294 294 294 294 294 294 293 293 293 293 293 293 293 293 293 292 292 292 292 292 292 292 291 291 291 291 291 290 290 290 290 290 290 289 289 289 289 289 289 288 288 288 287 287 287 287 287
295 295 294 294 294 293 293 293 293 293 293 293 292 292 292 292 292 292 292 292 292 292 292 292 292 292 292 291 291 291 291 290 290 290 290 290 290 289 289 289 289 289 289 288 288 288 288 288 287 287 287 287
294 293 293 292 292 292 292 292 292 292 292 292 292 291 291 291 291 291 291 292 291 291 291 291 292 292 291 291 291 291 291 290 290 290 290 290 290 289 289 289 289 289 289 288 288 288 288 288 287 287 287 287
292 291 291 291 291 290 290 290 290 290 290 290 290 290 290 290 290 290 291 291 291 291 291 291 291 291 291 291 291 291 291 290 290 290 290 290 290 290 289 289 289 289 289 289 289 288 288 288 287 287 287 287
291 290 290 290 290 290 290 290 290 290 290 289 289 290 289 289 289 289 289 289 290 290 290 290 291 291 291 291 291 291 290 290 290 290 290 290 290 290 290 290 289 289 289 289 289 289 288 288 288 287 287 287
290 290 290 290 290 290 290 290 290 290 290 289 289 289 289 288 288 288 288 288 288 288 289 290 290 290 290 290 290 290 290 289 290 289 289 289 289 290 290 290 290 290 289 289 289 289 289 288 288 288 287 287
289 289 289 289 289 289 289 289 289 289 289 289 289 289 289 288 287 288 287 287 288 288 288 289 289 289 290 290 289 289 289 289 289 289 289 289 289 289 289 289 289 289 289 289 289 289 289 289 288 288 288 288
288 289 289 289 289 289 289 289 289 289 288 288 288 288 287 287 286 287 287 287 287 287 288 288 288 289 289 288 288 288 288 288 288 289 289 289 289 289 289 289 289 289 289 289 289 289 289 289 288 288 288 288
288 288 288 288 288 288 288 288 288 288 288 288 287 286 286 286 286 287 286 286 286 286 287 287 287 287 287 287 287 287 287 287 288 288 288 288 289 289 289 289 289 289 289 289 289 289 289 288 288 288 288 288
287 287 287 287 287 287 287 287 287 287 287 286 286 285 285 285 286 286 285 285 285 285 285 285 286 286 286 286 286 286 286 287 287 287 288 288 288 288 288 288 288 288 288 288 288 288 288 288 288 288 288 288
286 286 286 286 286 286 286 286 286 286 286 285 285 284 284 285 285 284 284 284 284 284 284 284 284 285 285 285 285 285 285 286 286 286 286 286 287 287 287 287 288 288 288 288 288 288 288 288 288 288 288 288
284 285 285 285 285 285 285 285 285 285 285 284 283 284 284 284 284 282 282 282 282 282 282 282 283 283 283 283 283 283 284 284 285 285 285 285 286 286 286 287 287 287 288 288 288 288 288 288 288 288 288 288
283 283 283 283 284 284 284 284 284 284 283 283 282 282 283 282 282 281 280 280 280 280 280 280 281 281 281 281 281 282 282 282 283 283 284 284 285 285 285 286 287 287 287 287 287 287 288 288 288 288 288 288
282 282 282 282 282 283 283 283 283 283 282 282 281 281 281 281 279 279 279 279 279 279 279 279 280 280 280 280 280 280 281 281 281 282 282 283 283 284 284 285 285 286 286 286 287 287 287 287 288 288 289 289
280 281 280 280 281 281 281 282 282 281 280 280 279 279 279 278 277 277 277 278 278 278 278 278 279 279 279 279 279 279 280 280 280 281 281 282 282 283 283 284 284 285 286 286 286 286 286 287 287 288 288 289
278 279 278 278 278 278 279 279 279 279 278 277 277 277 277 276 276 276 276 277 277 277 278 278 278 278 278 277 278 278 278 279 279 280 280 281 281 282 282 282 283 284 284 285 285 285 286 286 286 286 288 289
276 276 276 276 276 276 277 277 277 277 276 276 276 276 276 275 276 276 276 276 276 277 277 277 277 276 275 275 276 276 277 277 278 278 279 280 280 280 281 281 282 282 283 284 284 285 285 285 285 286 287 287
275 275 275 275 275 275 276 276 276 276 276 276 276 276 275 275 275 275 275 275 276 276 276 276 275 274 274 274 274 275 275 276 276 277 278 278 278 278 279 280 280 281 282 282 283 284 284 285 285 285 286 285
275 275 275 275 275 275 275 275 276 275 275 275 275 275 275 275 275 275 275 275 275 276 276 275 274 273 272 273 273 274 274 275 275 276 276 276 276 277 278 278 279 280 281 281 282 283 284 284 284 284 285 284
Wind_Speed
11 11 10 9 8 8 8 7 8 8 7 7 7 6 5 5 4 4 5 5 5 4 3 4 6 7 6 6 6 6 7 7 7 7 7 7 6 4 3 4 6 8 9 10 12 13 15 16 15 14 13 12
10 10 9 8 7 7 7 6 6 5 5 4 4 4 4 4 4 4 3 3 3 3 2 1 3 5 6 5 5 5 6 6 6 6 6 5 4 4 6 7 9 10 10 11 12 14 15 15 15 14 12 12
9 9 8 7 6 6 5 5 4 3 3 1 1 1 3 3 3 3 3 3 2 3 3 1 0 1 3 4 4 4 4 4 5 5 4 4 4 7 9 10 11 11 11 12 13 14 14 15 15 12 10 12
8 7 6 4 3 3 2 2 2 2 2 3 2 3 2 2 3 2 3 3 2 3 3 3 2 2 1 2 3 3 4 3 3 3 3 4 6 10 12 12 12 12 12 12 13 14 14 15 12 8 9 12
8 4 3 2 1 1 1 2 2 2 3 3 4 6 5 3 2 2 3 2 2 3 4 4 4 5 4 3 3 4 7 7 5 5 6 7 9 12 13 13 11 11 13 14 14 14 14 13 8 6 12 13
6 3 2 2 1 1 2 4 5 3 3 4 5 7 6 4 4 4 4 3 4 4 4 6 7 7 7 7 7 7 9 10 9 8 9 10 11 13 13 11 8 7 11 14 15 15 13 9 5 8 13 12
4 3 3 3 2 3 3 4 6 4 5 6 5 7 6 5 5 5 5 6 8 7 6 7 8 9 8 8 8 9 10 10 10 10 10 11 12 11 10 8 5 5 7 9 11 12 10 6 7 12 12 9
3 3 2 2 2 3 3 3 4 4 4 5 5 6 5 5 5 6 6 7 8 7 5 6 9 9 8 7 7 10 10 7 9 11 9 11 12 9 6 6 5 6 6 6 7 7 6 6 10 14 10 7
3 2 2 2 2 2 2 2 2 2 2 2 3 4 4 5 5 5 5 5 5 4 4 5 6 7 6 5 6 9 7 3 6 8 6 7 8 5 5 6 5 7 7 6 7 6 6 8 10 11 9 8
2 2 2 1 1 0 0 0 1 0 0 0 1 1 2 3 4 4 3 4 4 4 5 5 5 5 5 5 5 6 5 4 5 6 5 5 5 5 6 6 7 8 8 8 8 7 8 10 11 10 8 8
1 1 2 3 3 3 3 2 2 2 2 2 3 3 2 3 2 3 3 3 4 4 5 5 5 6 5 6 5 5 5 5 6 6 6 5 6 7 7 7 7 8 8 8 9 9 8 9 12 10 8 8
4 5 5 5 5 5 5 4 4 4 4 3 5 5 5 4 3 3 4 4 5 5 5 5 6 6 6 6 6 6 6 6 6 6 6 6 7 7 7 8 8 7 7 8 8 8 8 9 11 9 9 9
7 7 7 7 7 7 7 6 6 5 5 5 5 7 7 6 5 5 5 5 6 6 6 6 6 6 6 6 6 6 6 6 6 6 6 7 7 7 8 8 8 8 8 8 8 8 8 9 10 9 9 9
9 9 9 9 8 8 7 7 6 6 6 6 6 7 8 8 8 7 7 7 7 8 8 8 7 7 7 7 7 6 6 6 6 7 7 7 8 8 9 9 9 9 9 9 9 9 9 9 9 9 9 9
10 10 10 9 9 8 8 7 7 7 7 7 7 8 9 9 9 8 8 8 9 9 9 9 8 8 8 8 8 7 6 6 7 8 8 9 9 9 10 10 10 10 10 9 9 10 9 9 9 9 9 10
11 11 11 10 10 9 9 8 8 8 8 8 8 9 11 11 10 10 9 9 10 10 10 10 10 10 9 9 9 8 7 8 10 10 10 10 9 9 10 10 10 10 10 10 10 10 9 9 9 10 10 10
11 11 11 10 10 9 9 9 9 9 8 9 8 9 11 13 12 11 10 10 11 11 11 10 10 10 10 10 9 9 10 11 11 10 10 10 10 11 10 10 10 10 10 10 10 10 10 10 10 10 10 10
12 11 11 10 10 10 9 8 9 9 9 9 9 9 11 14 14 11 11 12 11 11 11 11 11 10 10 10 9 10 11 11 11 11 12 12 12 12 11 12 12 11 12 11 11 11 11 10 10 10 11 12
12 12 11 11 10 10 10 9 10 9 10 10 10 10 10 14 15 11 11 12 11 11 10 10 10 10 10 10 10 11 11 11 11 12 13 12 12 13 13 14 14 13 13 13 13 12 12 12 11 12 13 13
13 12 11 11 11 11 11 10 10 10 11 10 10 11 11 14 15 11 11 12 11 11 10 10 10 10 10 10 11 11 11 11 11 11 12 11 12 13 14 14 15 15 15 15 15 14 13 12 13 14 15 15
14 13 12 12 11 12 11 10 11 11 11 11 11 12 12 15 14 10 11 12 11 11 10 10 10 9 10 11 11 11 10 10 10 11 11 11 11 12 14 14 15 15 16 16 16 15 14 15 16 17 17 17
15 15 14 13 12 12 12 10 11 11 10 11 11 12 13 14 12 10 12 12 12 11 10 10 10 10 10 11 11 11 11 10 10 10 10 11 11 12 13 14 15 15 16 16 17 17 17 18 19 19 20 19
17 16 16 15 14 13 12 11 11 11 10 11 12 12 13 12 10 11 12 12 12 12 11 11 10 10 11 11 11 11 11 10 10 10 11 12 13 13 13 14 15 16 16 17 17 17 18 19 21 22 21 20
18 17 17 17 15 14 14 13 12 11 11 11 12 12 12 11 10 12 13 12 13 12 12 12 11 11 11 11 11 11 11 11 11 12 13 13 13 14 14 14 14 14 15 16 17 18 19 20 21 21 20 19
18 17 17 17 16 15 15 14 12 11 11 11 11 12 11 10 11 13 13 13 13 13 12 12 11 12 12 11 11 11 11 12 12 13 13 13 13 13 14 14 12 12 13 15 15 16 17 18 18 19 20 20
16 16 16 16 15 15 14 13 12 11 11 11 11 12 11 11 12 13 13 12 12 12 12 12 12 11 11 11 11 12 12 12 12 12 12 12 13 13 13 13 12 12 12 13 13 13 13 14 16 18 19 18
16 14 14 14 14 14 14 13 12 11 11 11 12 11 11 11 12 12 12 12 12 11 11 11 11 11 11 11 12 12 12 12 12 12 11 11 12 13 13 13 12 11 11 11 12 12 9 8 9 10 10 13
18 14 14 14 13 12 12 11 11 10 10 11 11 11 11 12 12 12 12 11 11 11 10 10 10 11 12 12 13 13 12 12 12 12 11 11 11 12 13 13 12 11 11 12 11 9 7 7 7 6 6 9
22 18 16 16 14 13 12 10 10 10 11 12 12 11 12 13 12 12 11 11 11 10 10 10 10 12 13 13 13 12 12 12 12 12 12 11 11 12 13 13 14 13 12 12 12 10 8 7 6 5 7 10
21 18 15 16 15 14 14 12 11 12 12 13 13 12 13 13 12 12 11 11 11 10 9 10 11 12 14 14 13 12 13 13 12 12 12 12 13 13 13 14 14 14 13 13 14 14 14 12 10 10 11 10
19 16 14 14 13 13 13 12 12 12 12 13 13 13 13 13 12 12 11 11 11 10 10 10 11 13 14 13 13 13 13 12 12 12 13 13 13 14 13 13 14 14 13 13 13 13 15 17 18 18 15 10
Wind_Direction
135 133 130 128 127 123 116 111 109 105 102 99 93 89 82 73 71 69 65 59 49 36 54 67 49 41 39 43 40 37 36 33 35 37 36 35 34 30 9 341 328 328 330 326 325 324 328 338 344 346 352 5
145 140 137 139 140 137 130 120 114 109 108 107 99 82 69 64 55 52 48 45 38 15 6 73 75 49 34 34 37 31 32 30 29 32 32 29 11 324 303 307 314 320 322 320 322 323 330 337 339 343 351 355
151 149 148 150 145 141 139 129 123 121 137 171 135 58 46 47 40 40 25 16 11 356 345 336 173 78 36 23 24 20 17 21 23 21 20 16 335 304 302 310 315 317 318 318 320 322 328 333 337 346 352 343
153 158 150 146 143 138 145 140 161 176 225 276 304 317 343 1 10 360 345 3 342 314 309 304 284 259 320 356 5 347 327 332 358 1 348 334 310 307 313 317 317 317 317 316 317 320 322 329 340 343 334 336
154 172 137 122 354 6 332 308 287 297 297 294 300 306 322 341 320 246 266 290 273 291 296 291 292 287 284 288 301 302 303 310 318 319 313 312 312 316 320 324 329 325 323 323 321 319 319 329 343 320 321 333
155 183 153 165 255 291 281 290 296 300 272 262 264 284 300 292 258 242 251 245 249 270 274 278 289 293 291 289 292 294 303 314 315 314 314 317 321 324 332 342 348 329 324 329 329 329 331 336 326 305 320 328
165 183 183 201 228 250 262 271 287 276 248 252 246 255 266 264 254 254 261 252 263 283 281 280 293 300 301 300 301 307 315 320 322 329 328 331 338 344 352 358 346 322 324 327 329 335 340 331 308 311 322 320
178 183 205 237 242 256 266 258 272 264 247 249 244 251 259 260 260 264 266 265 282 302 300 290 300 311 320 318 313 321 328 319 323 340 340 337 349 358 352 343 329 324 327 318 320 327 322 310 312 319 321 306
201 216 245 254 253 258 256 246 256 252 245 250 260 267 265 262 266 274 268 269 292 303 295 292 297 306 317 319 305 317 331 311 313 333 330 324 339 343 320 323 320 317 319 311 313 311 304 308 313 318 314 298
233 242 250 235 224 199 158 120 114 147 148 8 341 322 295 283 272 281 275 273 295 296 298 300 301 304 306 309 303 309 321 317 316 319 317 316 319 318 309 309 308 308 310 306 308 305 299 307 314 314 302 293
170 154 123 102 100 95 81 78 78 67 67 60 40 28 360 330 295 301 303 302 312 310 314 314 316 320 314 314 314 314 316 316 320 318 316 314 310 310 304 298 298 298 299 299 305 305 297 303 313 311 295 288
120 111 102 93 88 81 74 71 67 62 61 61 54 43 28 9 345 340 337 333 332 330 333 329 328 327 321 321 319 316 319 316 317 320 314 309 308 306 301 297 294 290 289 290 293 296 291 296 305 299 287 284
109 101 93 88 81 76 72 68 64 62 61 57 52 42 33 22 10 1 352 350 345 342 341 335 331 327 324 324 320 315 318 316 313 316 312 307 306 303 301 298 296 292 290 290 285 284 282 286 293 288 285 284
101 94 86 81 76 72 67 65 63 58 55 49 41 33 27 20 12 2 354 352 346 342 338 333 330 329 327 323 319 313 311 315 314 312 310 305 304 306 304 300 299 295 290 290 284 280 275 277 287 286 284 284
91 85 79 76 71 67 62 59 57 52 47 42 36 28 22 17 8 359 352 348 344 337 331 327 325 324 322 318 316 312 309 312 311 308 303 300 299 301 303 299 298 294 289 289 287 281 274 274 282 285 284 284
81 77 74 71 68 64 61 58 55 50 45 40 34 28 23 18 9 2 355 347 341 333 326 321 318 316 313 311 310 309 310 308 305 301 296 296 293 294 297 295 293 291 285 285 287 284 277 277 281 284 284 283
75 73 71 68 65 61 57 55 50 45 39 33 28 23 17 12 8 3 354 345 339 332 324 317 312 310 307 307 308 307 307 304 301 297 295 295 294 293 292 291 292 290 285 285 287 286 283 281 282 285 282 280
68 66 64 60 57 50 47 44 38 35 27 23 19 15 9 2 1 358 350 343 337 331 323 316 311 309 308 309 311 309 306 304 300 296 294 292 290 289 288 288 290 289 287 287 288 286 285 283 283 285 281 280
58 57 54 50 46 39 36 33 28 24 17 16 11 9 5 355 355 354 347 344 338 331 324 318 314 312 313 316 316 311 307 305 300 295 292 289 288 287 286 285 285 286 287 287 288 286 283 281 282 284 281 280
46 44 42 39 36 30 27 24 20 16 11 11 6 5 360 350 351 351 346 346 342 334 327 322 319 315 317 321 319 312 308 306 301 298 294 290 289 287 287 285 283 283 284 285 286 284 279 276 280 283 281 278
33 31 29 26 24 20 18 16 13 10 6 7 3 1 356 349 351 350 347 349 345 339 332 327 322 318 321 324 320 314 310 307 303 301 298 295 293 291 290 288 286 284 283 284 283 283 279 276 279 280 279 276
23 20 18 15 13 11 10 9 8 5 4 5 1 357 354 351 352 351 350 350 348 343 335 330 324 321 325 325 321 316 312 310 307 305 304 304 300 296 293 289 288 286 285 285 283 281 277 275 276 276 276 273
16 14 12 8 4 3 2 1 0 1 1 2 358 354 353 352 354 351 349 347 346 342 336 331 325 323 325 324 322 318 315 313 312 312 310 307 301 296 291 287 286 286 285 284 282 280 279 278 274 272 272 268
11 8 6 3 359 357 355 352 352 356 356 357 355 351 351 353 352 348 346 344 342 339 334 330 325 324 325 324 324 320 317 315 313 311 308 304 300 296 292 287 285 286 287 287 286 284 281 278 274 271 268 261
8 5 1 357 354 351 348 345 345 347 348 351 351 348 348 350 347 345 344 343 341 338 335 331 328 327 327 328 326 321 317 313 310 307 305 302 300 296 294 292 290 292 295 293 290 289 287 285 280 273 265 258
5 3 358 351 347 343 340 341 342 343 344 345 346 344 344 345 344 343 342 342 341 339 338 336 333 332 333 333 330 325 319 315 313 310 308 307 303 299 296 294 293 295 295 291 293 298 297 293 284 272 263 258
4 357 354 349 342 339 335 334 336 337 337 338 340 341 341 342 342 342 342 341 342 341 340 339 338 337 337 336 334 329 324 321 320 318 315 312 308 305 301 296 294 294 292 291 298 299 293 295 299 287 273 266
5 355 352 350 344 340 334 329 329 330 333 337 338 338 339 339 339 341 340 340 341 340 340 341 342 341 338 335 332 328 323 321 320 318 317 316 314 312 309 304 302 300 295 292 294 292 290 302 301 289 288 297
5 1 356 354 350 347 345 339 337 338 339 339 337 336 336 335 335 337 337 338 339 338 339 342 343 341 337 333 329 325 321 316 315 315 316 319 320 317 312 308 305 301 294 285 279 273 281 295 286 281 310 318
4 3 359 355 353 350 346 342 342 341 337 335 334 331 329 330 331 332 333 335 336 335 336 339 340 339 336 331 327 325 320 316 316 316 319 322 320 315 310 307 303 299 295 286 276 266 263 265 268 284 306 310
3 2 358 354 350 346 340 333 333 334 331 330 328 324 324 325 327 329 329 332 333 332 332 335 337 336 333 330 327 325 322 319 320 320 320 319 315 311 307 304 299 296 299 294 283 273 266 264 266 271 278 282